Погода в Нелемном

Россия / Республика Саха (Якутия)     65°29′51″N   151°04′36″E
темп.,
°C
ветер,
м/с
пор.,
м/с
влажн.,
%
обл.,
%
осадки,
мм/ч
давл.,
гПа
погр.,
м
1 марта, пн
пн123:00−35с22980 0.0 102519
02:00−36ссз239934 0.0 102419
05:00−37ссз339959 0.0 102319
08:00−37ссз349995 0.0 102320
11:00−34ссз459597 0.0 1023237
14:00−32с459099 0.0 1021417
17:00−33с339599 0.0 102136
20:00−37ссз339878 0.0 102219
2 марта, вт
вт223:00−38с239988 0.0 102319
02:00−39с12100100 0.0 102318
05:00−40ссв11100100 0.0 102418
08:00−40вюв01100100 0.0 102518
11:00−35юв119399 0.0 1026119
14:00−33ююв118398 0.0 1026268
17:00−32юв118899 0.0 1026114
20:00−34ююв1190100 0.0 102819
3 марта, ср
ср323:00−33ююв2290100 0.0 102820
02:00−34ююв2287100 0.0 102719
05:00−34ююв1286100 0.0 102619
08:00−32в1198100 0.1 102519
11:00−31св1192100 0.1 1023192
14:00−29ссв218598 0.0 1021359
17:00−30ссз339298 0.0 101835
20:00−33ссз589690 0.0 1017138
4 марта, чт
чт423:00−33ссз8129695 0.0 1014342
02:00−33ссз101596100 0.3 1010551
05:00−33ссз121696100 0.8 1007654
08:00−33ссз131994100 0.4 1004754
11:00−31ссз141995100 0.9 1000941
14:00−30ссз151995100 0.5 9971034
17:00−30ссз161995100 1.3 995995
20:00−29ссз152095100 0.7 996800
5 марта, пт
пт523:00−28сз162293100 1.2 996890
02:00−26сз162292100 0.4 995913
05:00−26сз152190100 0.7 996941
08:00−25сз152187100 0.2 998982
11:00−24сз152083100 0.3 9991184
14:00−24сз151989100 0.1 10001162
17:00−25сз141892100 0.4 10011037
20:00−26сз142086100 0.3 1003785